User: anonymous   Login
Location: Darlington Observatory
(36.4817°N, 105.8156°W)
Time: 18:04:17
(UTC-06:00)
Language:

MOS 1 - Orbit

View from above orbital plane
View from above orbital plane
View from above satellite
View from above satellite

Ground track
Ground track

The orbit data is extracted from the following two-line orbital elements,

1 17527U 87018A   17177.24059904 -.00000278 +00000-0 -15027-3 0  9999
2 17527 099.2660 191.6570 0007246 267.5512 223.2556 14.02478595550518
Epoch (UTC): 26 June 2017 05:46:27
Eccentricity: 0.0007246
inclination: 99.2660°
perigee height: 880 km
apogee height: 890 km
right ascension of ascending node: 191.6570°
argument of perigee: 267.5512°
revolutions per day: 14.02478595
mean anomaly at epoch: 223.2556°
orbit number at epoch: 55051

The dashed part of the orbit path shows where the satellite is in the earth's shadow,  

DLR